Tracking 32954 objects as of 20-Jan-2026
HD Live streaming from Space Station
objects crossing your sky now

DELTA 1 DEB

Track DELTA 1 DEB now!
10-day predictions


NORAD ID: 2700
Int'l Code: 1965-089C
Perigee: 1,072.5 km
Apogee: 2,223.5 km
Inclination: 59.6 °
Period: 119.1 minutes
Semi major axis: 8019 km
RCS: 0.0515 m2 (small)
Launch date: November 6, 1965
Source: United States (US)
Launch site: AIR FORCE EASTERN TEST RANGE (AFETR)

Note: This is SATELLITE DEBRIS
Your satellite tracking list
Your tracking list is empty




NASA's NSSDC Master Catalog

Two Line Element Set (TLE):
1 02700U 65089C   26018.71089243 -.00000299  00000-0 -11319-2 0  9997
2 02700  59.5987 277.2341 0717647 343.8040  40.0130 12.08986227693386
Source of the keplerian elements: AFSPC